{"data":{"norad_id":52161,"intl_designator":"2022-033E","name":"ARCSAT-1","alt_names":[],"object_type":"PAYLOAD","status":"ACTIVE","operator":null,"country":"NOR","launch_date":"2022-04-01","launch_site_code":"AFETR","launch_vehicle":null,"mission":null,"orbit_class":"UNKNOWN","rcs_meters":null,"size_class":null,"mass_kg":null,"dimensions":null,"purposes":[],"wikipedia_slug":null,"has_3d_model":false,"image_url":null,"decayed_at":null,"tle_current":{"epoch":"2026-05-25T04:36:03.725856Z","epoch_age_seconds":54923,"freshness":"FRESH","line1":"1 52161U 22033E   26145.19170979  .00013124  00000+0  21214-3 0  9999","line2":"2 52161  97.2738 237.1349 0003138 280.7472  79.3428 15.52974474232139","mean_motion":15.52974474,"eccentricity":0.0003138,"inclination_deg":97.2738,"raan_deg":237.1349,"arg_perigee_deg":280.7472,"mean_anomaly_deg":79.3428,"bstar":0.00021214,"rev_number":23213,"period_min":92.725284549654,"perigee_km":405.91747766331,"apogee_km":410.17648673054,"semimajor_km":6786.1839821969,"source":"CELESTRAK","updated_at":"2026-05-25T13:37:57.649757Z"}}}